Regional Weather Roundup
Issued by NWS

Home | Current Version | Previous Version | Graphics & Text | Print | Product List | Glossary On
Versions: 1 2 3 4 5 6 7 8 9 10 11 12 13 14 15 16 17 18 19 20 21 22 23 24 25 26 27 28 29 30 31 32 33 34 35 36 37 38 39 40 41 42 43 44 45 46 47 48 49 50
462
ASUS43 KOAX 260210
RWRNE

WEATHER ROUNDUP FOR NEBRASKA
NATIONAL WEATHER SERVICE OMAHA NE
900 PM CDT WED APR 25 2018

NOTES: SATELLITE DATA IS BEING USED TO AUGMENT CLOUD COVER ABOVE
       12000 FEET.
       "FAIR" INDICATES FEW OR NO CLOUDS BELOW 12,000 FEET WITH NO
       SIGNIFICANT WEATHER AND/OR OBSTRUCTIONS TO VISIBILITY.


NEZ001>004-019>022-054>056-260300-
NEBRASKA PANHANDLE

CITY           SKY/WX    TMP DP  RH WIND       PRES   REMARKS
SCOTTSBLUFF    PTCLDY    56  35  45 SE9       29.92F
ALLIANCE       MOCLDY    47  34  60 MISG      29.93F
CHADRON        MOCLDY    56  33  42 S13       29.87F
GORDON         FAIR      52  33  47 S6        29.91F
KIMBALL        MOCLDY    49  29  46 S7        30.00S
SIDNEY         PTCLDY    46  31  55 S9        29.99F
$$

NEZ057>060-069>072-079>082-260300-
SOUTHWEST NEBRASKA

CITY           SKY/WX    TMP DP  RH WIND       PRES   REMARKS
NORTH PLATTE   PTCLDY    49  33  54 S5        30.01F
IMPERIAL       CLEAR     48  33  56 SE8       30.02F
LEXINGTON      MOCLDY    51  35  55 S7        30.03F
MCCOOK         PTCLDY    56  31  38 SE5       30.04S
OGALLALA       PTCLDY    55  36  49 S8        30.00S
$$

NEZ005>010-023>029-035>040-094-260300-
NORTH CENTRAL NEBRASKA

CITY           SKY/WX    TMP DP  RH WIND       PRES   REMARKS
VALENTINE      CLOUDY    58  27  30 S9        29.92F
AINSWORTH      MOCLDY    49  32  51 S10       29.96F
BROKEN BOW     CLOUDY    51  35  54 SE7       30.00F
O`NEILL        CLOUDY    53  32  45 SE7       30.00F
ORD            CLOUDY    47  34  60 SW3       30.01F
THEDFORD       PTCLDY    55  27  33 S9        29.98F
$$

NEZ041-046>049-061>064-073>077-083>087-260300-
SOUTH CENTRAL NEBRASKA

CITY           SKY/WX    TMP DP  RH WIND       PRES   REMARKS
GRAND ISLAND   CLEAR     51  30  44 SE5       30.05S
AURORA         CLEAR     50  32  49 SE5       30.05S
HASTINGS       CLEAR     52  33  48 S3        30.06S
HEBRON         CLEAR     45  37  72 S5        30.08R
HOLDREGE       CLEAR     49  36  59 SE7       30.05S
KEARNEY        CLEAR     51  34  52 MISG      30.05F
YORK             N/A     54  28  37 CALM      30.06S
$$

NEZ011>018-030>034-042>045-260300-
NORTHEAST NEBRASKA

CITY           SKY/WX    TMP DP  RH WIND       PRES   REMARKS
NORFOLK        CLEAR     47  32  56 S6        30.02R
ALBION         CLOUDY    47  34  60 SE3       30.03F
BLAIR          CLEAR     54  32  42 CALM      30.03S
COLUMBUS       CLEAR     50  34  54 S6        30.04F
FREMONT        CLEAR     52  33  49 W5        30.04S
TEKAMAH        CLEAR     49  29  46 W7        30.02F
WAYNE          CLEAR     46  35  65 S5        30.02S
$$

NEZ050>053-065>068-078-088>093-260300-
SOUTHEAST NEBRASKA

CITY           SKY/WX    TMP DP  RH WIND       PRES   REMARKS
LINCOLN        CLEAR     50  31  48 S3        30.07S
OMAHA EPPLEY   PTCLDY    55  32  41 W6        30.02S
BEATRICE       CLEAR     46  37  72 SW3       30.06F
FALLS CITY     CLEAR     46  39  76 W7        30.06S
NEBRASKA CITY  CLEAR     46  40  81 SW8       30.05S
PLATTSMOUTH    CLEAR     49  37  61 SW6       30.04S
$$

NEZ044-045-051>053-067-260300-
OMAHA AREA

CITY           SKY/WX    TMP DP  RH WIND       PRES   REMARKS
OMAHA EPPLEY   PTCLDY    55  32  41 W6        30.02S
BLAIR          CLEAR     54  32  42 CALM      30.03S
FREMONT        CLEAR     52  33  49 W5        30.04S
MILLARD        CLEAR     56  36  46 W6        30.03S
OFFUTT AFB     CLEAR     54  35  50 W9        30.02S
PLATTSMOUTH    CLEAR     49  37  61 SW6       30.04S
WAHOO          FAIR      53  32  44 SW6       30.04S
$$




USA.gov is the U.S. government's official web portal to all federal, state and local government web resources and services.